Tracking 30986 objects as of 9-Jul-2025
HD Live streaming from Space Station
objects crossing your sky now

CZ-6A DEB

Track CZ-6A DEB now!
10-day predictions


NORAD ID: 54916
Int'l Code: 2022-151RD
Perigee: 832.1 km
Apogee: 903.4 km
Inclination: 98.8 °
Period: 102.2 minutes
Semi major axis: 7238 km
RCS: Unknown
Launch date: November 11, 2022
Source: People's Republic of China (PRC)
Launch site: Taiyaun Space Center, China (TSC)

Note: This is SATELLITE DEBRIS
Your satellite tracking list
Your tracking list is empty




NASA's NSSDC Master Catalog

Two Line Element Set (TLE):
1 54916U 22151RD  25189.95034181  .00000350  00000-0  22196-3 0  9993
2 54916  98.8397 191.0865 0049241 233.5890 126.0734 14.09650477133150
Source of the keplerian elements: AFSPC